User: anonymous   Login
Location: Lake Crest
(37.6062°N, 88.9176°W)
Time: 13:52:20
(UTC+00:00)
Language:

Abrixas rocket - Orbit

View from above orbital plane
View from above orbital plane
View from above satellite
View from above satellite

Ground track
Ground track

The orbit data is extracted from the following two-line orbital elements,

1 25723U 99022C   20056.62705220  .00012145  00000-0  99676-4 0  9992
2 25723  48.4099 262.7574 0006392 162.8236 197.2933 15.70792033160228
Epoch (UTC): 25 February 2020 15:02:57
Eccentricity: 0.0006392
inclination: 48.4099°
perigee height: 352 km
apogee height: 361 km
right ascension of ascending node: 262.7574°
argument of perigee: 162.8236°
revolutions per day: 15.70792033
mean anomaly at epoch: 197.2933°
orbit number at epoch: 16022

The dashed part of the orbit path shows where the satellite is in the earth's shadow,  

DLR